Find STARLINK-37360

NORAD ID: 70566 Constellation: starlink operational
LEOCIRCULARRETROGRADE

Live Position

Loading 3D Globe...

About STARLINK-37360

Description loading...

Upcoming Passes

Passes for default location (London). Set your location on the main map for personalized predictions.

Altitude History

Loading altitude history...

Two-Line Element Set

1 70566C 26097G 26121.87826389 -.00647830 00000+0 -94847-3 0 1212
2 70566 97.2858 316.5388 0007872 257.4124 337.1091 16.05392940 12
Epoch: May 1, 2026 • Age: 28 hours